Location: Johnson City
(36.3130°N, 82.3540°W)
Time: 06:31:35
(UTC-05:00)

Envisat - Visible Passes

Search period start: 29 November 2020 00:00
Search period end: 09 December 2020 00:00
Orbit: 764 x 766 km, 98.1° (Epoch: 28 November)

Date Brightness Start Highest point End Pass type
(mag) Time Alt. Az. Time Alt. Az. Time Alt. Az.
29 Nov 6.2 05:01:23 10° ENE 05:03:09 12° E 05:04:55 10° ESE visible
29 Nov 3.0 06:37:32 10° N 06:42:35 67° WNW 06:47:36 10° SSW visible
29 Nov 3.5 17:49:17 10° S 17:54:19 67° WSW 17:59:23 10° NNW visible
30 Nov 3.9 06:00:50 10° NNE 06:05:47 52° E 06:10:43 10° S visible
30 Nov 6.0 18:53:52 10° SW 18:56:51 16° W 18:59:50 10° NW visible
01 Dec 5.5 05:24:54 10° NE 05:28:49 22° E 05:32:41 10° SE visible
01 Dec 4.7 18:15:09 10° SSW 18:19:47 36° W 18:24:28 10° NNW visible
02 Dec 3.0 06:26:07 10° NNE 06:31:13 86° WNW 06:36:18 10° SSW visible
02 Dec 3.1 17:37:51 10° SSE 17:42:55 87° WSW 17:48:02 10° NNW visible
03 Dec 4.4 05:49:36 10° NNE 05:54:22 40° E 05:59:06 10° SSE visible
03 Dec 5.7 18:41:41 10° SW 18:45:22 20° W 18:49:04 10° NW visible
04 Dec 5.9 05:14:03 10° NE 05:17:20 17° E 05:20:35 10° SE visible
04 Dec 3.2 06:51:41 10° N 06:56:33 47° WNW 07:01:23 10° SW visible
04 Dec 4.2 18:03:30 10° S 18:08:22 47° W 18:13:16 10° NNW visible
05 Dec 3.2 06:14:45 10° NNE 06:19:50 74° ESE 06:24:53 10° S visible
05 Dec 6.4 19:10:05 10° W 19:11:03 10° W 19:12:00 10° W visible
06 Dec 4.9 05:38:27 10° NE 05:42:56 31° E 05:47:22 10° SSE visible
06 Dec 5.3 18:29:43 10° SSW 18:33:54 26° W 18:38:07 10° NW visible
07 Dec 6.1 05:03:32 10° ENE 05:05:50 13° E 05:08:07 10° ESE visible
07 Dec 3.0 06:40:12 10° N 06:45:13 61° WNW 06:50:12 10° SSW visible
07 Dec 3.6 17:51:57 10° S 17:56:57 61° W 18:01:59 10° NNW visible
08 Dec 3.7 06:03:26 10° NNE 06:08:26 57° E 06:13:25 10° S visible
08 Dec 6.1 18:56:54 10° WSW 18:59:31 14° W 19:02:10 10° WNW visible
